Location: Bölmep?nar
(37.1094°N, 29.7732°E)
Time: 13:53:11
(UTC+00:00)

Daily predictions for brighter satellites

Satellite Brightness Start Highest point End
(mag) Time Altitude Azimuth Time Altitude Azimuth Time Altitude Azimuth
Cosmos 1459 Rocket 4.1 17:24:47 10° SSE 17:30:50 55° E 17:36:49 10° NNE
Cosmos 1302 Rocket 4.4 17:26:51 10° S 17:31:37 39° ESE 17:36:25 10° NE
Cosmos 2082 Rocket 2.6 17:26:34 10° S 17:31:55 44° ESE 17:37:19 10° NE
Terra 3.1 17:28:51 10° ESE 17:32:29 23° ENE 17:36:07 10° NNE
Cosmos 1536 Rocket 3.6 17:28:38 10° N 17:33:00 65° E 17:37:21 10° SSE
ATLAS CENTAUR Rocket 3.9 17:31:02 10° WSW 17:33:46 15° SSW 17:36:06 10° SSE
USA 305 4.1 17:30:39 10° NNW 17:34:09 27° NE 17:37:23 10° E
Resurs 01 Rocket 3.3 17:30:26 10° SSW 17:34:24 34° W 17:38:24 10° NNW
Cosmos 1802 Rocket 4.4 17:30:07 10° SSE 17:35:54 43° E 17:41:39 10° NNE
Cosmos 676 Rocket 4.5 17:31:15 10° NNW 17:36:22 63° WSW 17:41:27 10° S
NOSS 3-3 (C) 3.9 17:35:17 10° S 17:39:55 42° ESE 17:45:10 10° NE
Cosmos 2151 Rocket 4.1 17:35:45 10° SSW 17:40:03 62° W 17:44:23 10° N
Okean 2 Rocket 3.2 17:36:10 10° S 17:40:38 87° W 17:45:08 10° N
Cosmos 1743 3.7 17:43:39 10° NNE 17:45:57 20° ENE 17:47:40 13° ESE
Delta 2 Rocket 2.8 17:43:35 10° WSW 17:46:38 47° S 17:49:24 11° E
USA 215 3.5 17:40:27 10° SE 17:46:56 68° SW 17:53:27 10° NW
Cosmos 292 Rocket 3.8 17:42:35 10° NNW 17:47:21 87° WSW 17:52:03 10° SSE
Cosmos 1697 Rocket 3.0 17:43:40 10° NNW 17:49:15 71° WSW 17:54:48 10° SSE
USA 229 DEB 4.4 17:43:28 10° NW 17:51:14 70° WSW 17:59:35 10° SSE
USA 229 4.4 17:43:31 10° NW 17:51:18 71° WSW 17:59:39 10° SSE
SJ 16-02 4.5 17:51:17 10° W 17:52:09 11° W 17:53:01 10° WSW
Cosmos 2100 Rocket 4.1 17:46:01 10° S 17:52:15 89° WNW 17:58:35 10° N
Helios 1A Rocket 2.4 17:51:43 10° NNE 17:54:46 46° E 17:57:47 10° S
DELTA 2 R/B (1) 3.8 17:50:10 10° W 17:55:45 75° N 18:01:20 10° ENE
Cosmos 1455 Rocket 3.1 17:51:35 10° S 17:55:53 58° E 18:00:12 10° NNE
Meteor 1-27 4.3 17:50:43 10° S 17:56:14 58° E 18:01:43 10° NNE
Meteor 1-31 Rocket 2.4 17:53:14 10° SSE 17:56:40 69° ENE 18:00:07 10° N
IRAS Rocket 4.3 17:53:22 10° SSE 17:58:46 66° ENE 18:04:13 10° N
Okean O Rocket 3.3 17:56:46 12° ESE 17:58:59 18° ENE 18:01:50 10° NNE
Cosmos 1850 Rocket 3.9 17:55:24 10° NNW 18:00:35 77° ENE 18:05:36 11° SSE
SPOT 5 3.0 17:56:33 10° S 18:00:47 62° WSW 18:05:07 10° NNW
SL-24 R/B 4.3 17:57:28 10° NNE 18:01:54 90° SSW 18:06:56 10° SSW
Cosmos 1892 Rocket 3.9 17:58:22 10° N 18:02:29 43° E 18:05:41 15° SSE
Cosmos 2228 3.3 17:59:04 10° SSE 18:02:54 40° E 18:06:45 10° NNE
Cosmos 2233 Rocket 4.3 17:57:11 10° SSE 18:03:00 44° E 18:08:48 10° NNE
SL-16 R/B 4.2 18:00:53 10° NNE 18:03:50 14° NE 18:06:47 10° E
Okean 1 Rocket 4.2 18:04:00 10° SSW 18:08:12 45° W 18:12:27 10° N
CZ-3 Stage 3 3.1 18:06:43 10° SSW 18:09:11 13° S 18:09:52 13° SSE
USA 186 3.8 18:10:49 11° ENE 18:10:49 11° ENE 18:11:29 10° NE
COSMOS 2406 3.5 18:07:15 10° S 18:12:39 44° ESE 18:18:04 10° NE
MetOp-B 4.2 18:11:30 14° SSE 18:15:59 64° ENE 18:21:17 10° N
Cosmos 2084 Rocket 4.3 18:13:46 10° NNW 18:17:41 36° NE 18:19:50 22° ESE
Okean-O 3.7 18:17:41 21° ESE 18:19:33 29° ENE 18:23:18 10° N
Cosmos 1980 Rocket 2.2 18:14:28 10° NNW 18:20:11 89° ENE 18:24:35 17° SSE
BREEZE-M DEB (TANK) 3.1 18:11:47 10° SW 18:20:17 84° SE 18:23:06 10° NE
CSL-04 Rocket 4.5 18:15:11 10° S 18:20:31 52° W 18:25:49 10° NNW
Cosmos 1725 Rocket 4.1 18:15:13 10° S 18:21:30 85° W 18:27:46 10° N
CZ-4 R/B 1.8 18:18:41 10° S 18:22:12 51° W 18:25:45 10° NNW
Cosmos 1782 2.5 18:19:12 10° S 18:22:41 81° W 18:26:13 10° N
ASTEX 1 4.5 18:19:09 10° SSW 18:23:52 45° W 18:28:37 10° NNW
Spot 2 Rocket 4.0 18:22:03 22° SE 18:24:42 40° ENE 18:29:23 10° N
SKYMED 3 4.2 18:21:00 10° NNE 18:24:58 88° ESE 18:28:56 10° SSW
SL-4 R/B 4.3 18:23:36 10° W 18:25:42 14° SW 18:27:50 10° SSW
ATLAS 3B R/B 3.4 18:20:08 10° NW 18:27:31 54° WSW 18:33:49 13° S
ERS-1 Rocket 3.0 18:26:32 14° S 18:30:51 77° WSW 18:35:53 10° NNW
Cosmos 2333 Rocket 3.8 18:27:31 10° N 18:31:46 21° NE 18:34:15 16° E
Milstar 3 3.7 18:29:39 10° WSW 18:35:42 36° S 18:39:42 23° SE
Cosmos 2016 Rocket 4.2 18:29:56 10° SSW 18:36:11 71° W 18:42:23 10° N
Tsikada Rocket 4.0 18:30:53 10° N 18:36:59 64° E 18:40:46 24° SSE
CZ-4B R/B 3.3 18:37:33 18° S 18:41:53 79° WSW 18:47:32 10° NNW
Cosmos 2360 Rocket 4.1 18:42:26 10° NNE 18:45:48 16° NE 18:47:55 13° ENE
Cosmos 1992 Rocket 4.2 18:42:09 10° SSW 18:47:19 71° WNW 18:52:32 10° NNE
Cosmos 1461 2.8 18:45:53 10° SW 18:49:33 68° WNW 18:53:14 10° NNE
Meteor 2-12 Rocket 4.4 18:43:56 10° N 18:50:03 89° W 18:54:02 23° S
Cosmos 2219 Rocket 4.3 18:56:46 10° NNE 18:59:06 12° NE 19:01:07 11° ENE
USA 305 3.1 18:55:48 10° WNW 18:59:35 41° SW 18:59:50 41° SW
YAOGAN 11 4.2 18:55:42 10° N 19:00:09 76° WNW 19:02:59 22° SSW
Cosmos 220 Rocket 3.8 19:00:17 59° ESE 19:00:20 59° ESE 19:04:21 10° NNE
Cosmos 1437 Rocket 2.5 19:02:54 67° ENE 19:02:54 67° ENE 19:06:11 10° NNE
Gbstr 26 Del rocket 3.4 19:00:05 10° WNW 19:04:46 50° SW 19:05:31 44° SSW
Cosmos 2098 Rocket 3.8 19:07:46 40° E 19:07:46 40° E 19:11:47 10° NNE
Cosmos 1513 Rocket 4.5 19:06:37 37° SSE 19:09:04 63° E 19:15:09 10° NNE
GEOS 3 Rocket 4.5 19:07:19 27° S 19:09:38 43° WSW 19:14:43 10° NW
Terra 3.2 19:06:35 15° SSW 19:09:47 32° W 19:14:00 10° NNW
Cosmos 1464 Rocket 4.3 19:09:13 39° ESE 19:10:15 42° E 19:15:59 10° NNE
Cosmos 2061 Rocket 4.4 19:04:50 10° SSW 19:10:56 60° W 19:17:09 10° N
Cosmos 1626 Rocket 3.4 19:09:03 10° N 19:13:26 87° ENE 19:14:01 67° SSE
Cosmos 2082 Rocket 4.4 19:11:31 10° WSW 19:16:08 25° WNW 19:20:47 10° N
Cosmos 2322 Rocket 3.3 19:13:01 10° N 19:17:57 30° ENE 19:18:59 28° E
Cosmos 2237 4.4 19:13:26 10° NNW 19:19:08 67° WSW 19:21:01 42° S
Cosmos 2151 2.8 19:18:13 10° N 19:22:05 74° NE 19:22:05 74° NE
Cosmos 2369 4.3 19:19:39 10° NNW 19:25:10 51° WSW 19:27:11 35° SSW
Cosmos 1606 Rocket 4.5 19:26:21 36° NE 19:26:21 36° NE 19:29:20 10° NNE
Cosmos 1072 Rocket 4.4 19:26:52 51° SSE 19:28:19 67° E 19:34:35 10° NNE
Cosmos 540 Rocket 4.3 19:33:38 35° ENE 19:33:38 35° ENE 19:37:11 10° NNE
CZ-4B R/B 3.7 19:35:01 39° NNW 19:35:01 39° NNW 19:37:16 10° NNW
Okean O Rocket 2.7 19:34:00 32° SW 19:34:51 35° W 19:38:49 10° NNW
Chandra Rocket (1) 3.8 19:17:59 10° W 19:37:10 49° SSW 19:38:39 44° SSE
USA 186 4.4 19:40:56 15° WNW 19:40:56 15° WNW 19:41:49 10° NW
DELTA 2 R/B (1) 3.6 19:36:49 10° WNW 19:42:24 73° N 19:43:28 57° ENE
Cosmos 2278 3.6 19:38:22 10° NNW 19:44:05 70° ENE 19:44:30 67° E
Meteor 1-5 Rocket 4.2 19:41:12 10° N 19:46:59 67° E 19:47:20 65° ESE
Cosmos 2034 Rocket 4.1 19:48:12 57° ESE 19:48:31 58° E 19:54:43 10° NNE
SL-16 R/B 2.0 19:42:55 10° NNW 19:48:37 83° WSW 19:49:05 75° S
NOSS 3-4 (A) 4.2 19:42:13 10° NNW 19:49:05 55° NE 19:51:14 43° E
NOSS 3-4 (C) 4.3 19:42:52 10° NNW 19:49:44 54° NE 19:51:53 43° E
Okean 1-7 Rocket 4.2 19:49:46 10° N 19:53:16 52° NNE 19:53:16 52° NNE
Okean-O 4.5 19:55:01 21° WSW 19:55:46 22° W 19:59:10 10° NW
Ariane Rocket 3.0 19:58:02 70° W 19:58:02 70° W 20:03:03 10° NNW
SPOT 3 Rocket 4.1 20:01:10 48° WSW 20:01:29 48° W 20:06:28 10° NNW
Nadezhda 4 Rocket 3.8 20:05:14 10° N 20:11:21 84° W 20:11:39 80° SW
Cosmos 1634 Rocket 4.5 20:13:07 45° ENE 20:13:07 45° ENE 20:18:12 10° NNE
Cosmos 1763 Rocket 3.7 20:13:22 67° WNW 20:13:22 67° WNW 20:18:28 10° NNE
DNEPR-1 R/B 4.4 20:09:25 10° NNW 20:15:23 90° ENE 20:15:40 83° SSE
Cosmos 2333 Rocket 2.6 20:10:50 10° NNW 20:16:16 54° WSW 20:16:16 54° WSW
Cosmos 1833 4.4 20:16:06 61° W 20:16:37 64° WNW 20:22:13 10° NNE
Cosmos 2195 Rocket 4.4 20:23:24 10° N 20:29:20 82° NNW 20:29:20 82° NNW
Cosmos 2360 Rocket 2.4 20:24:42 10° NNW 20:29:39 65° WNW 20:29:39 65° WNW
Cosmos 2026 Rocket 4.0 20:27:40 10° N 20:33:45 79° NE 20:33:45 79° NE
Cosmos 2333 4.5 20:32:12 10° NNW 20:37:06 64° NW 20:37:06 64° NW
Cosmos 2219 Rocket 2.6 20:38:09 10° NNW 20:42:48 61° NNW 20:42:48 61° NNW
Cosmos 2322 Rocket 3.5 20:56:51 10° NW 21:00:46 32° W 21:00:46 32° W
Cosmos 2237 Rocket 4.0 21:16:05 10° N 21:20:29 23° ENE 21:20:30 23° ENE
Aureole 1 Rocket 4.4 21:17:32 10° NNW 21:22:39 59° NW 21:22:39 59° NW
Cosmos 2227 Rocket 4.3 21:29:18 17° ENE 21:29:18 17° ENE 21:31:03 10° NE
COSMOS 2428 3.5 21:26:05 10° NNW 21:30:13 47° N 21:30:13 47° N
USA 234 3.5 21:40:27 10° NE 21:46:54 64° NW 21:47:10 63° NW
ACS3 Solar Sail 3.3 21:50:16 10° NE 21:53:51 25° ENE 21:53:51 25° ENE
CZ-2C R/B 4.0 21:50:38 10° NNE 21:54:49 50° NNE 21:54:49 50° NNE
Cosmos 2297 Rocket 3.1 22:01:44 45° N 22:01:44 45° N 22:05:44 10° NNE
BREEZE-M DEB (TANK) 4.4 22:03:23 10° WSW 22:24:57 71° NW 22:30:25 10° NE
Cosmos 2219 4.3 22:51:04 35° ENE 22:51:04 35° ENE 22:54:58 10° NE
Lacrosse 4 Rocket 4.0 22:51:57 16° NNW 22:51:57 16° NNW 22:53:11 10° N
SL-16 R/B 3.5 22:47:44 10° N 22:52:54 34° ENE 22:53:44 33° ENE
CZ-2C R/B 4.1 22:58:57 28° NW 22:58:57 28° NW 23:01:39 10° NNW
Cosmos 2237 Rocket 3.6 22:59:19 10° NNW 23:02:17 30° NW 23:02:17 30° NW
Cosmos 2227 Rocket 3.1 23:11:04 40° NW 23:11:04 40° NW 23:15:41 10° N
Cosmos 2263 Rocket 2.7 23:20:54 51° NNW 23:20:54 51° NNW 23:25:33 10° NNE
ADEOS Rocket 4.0 23:14:16 10° NNE 23:21:27 45° E 23:22:57 40° SE
SeaSat 1 3.8 23:28:37 31° NW 23:28:37 31° NW 23:31:12 10° NNW
ACS3 Solar Sail 2.4 23:32:05 10° N 23:37:20 40° WNW 23:37:20 40° WNW
S3M 3.8 23:40:11 86° S 23:40:21 89° E 23:46:32 10° N
Cosmos 1570 Rocket 4.2 23:42:50 67° N 23:42:50 67° N 23:47:29 10° NNE
ATLAS 2AS CENTAUR R/B 4.3 23:38:12 10° NNW 23:44:10 32° NE 23:50:10 10° ESE
Cosmos 2315 Rocket 3.9 23:50:00 72° SSE 23:50:43 85° E 23:57:06 10° N
Resurs 1-4 Rocket 3.9 23:46:44 10° NE 23:50:51 23° E 23:52:32 20° ESE
Cosmos 1844 Rocket 3.2 23:50:48 47° ESE 23:51:08 48° ESE 23:56:29 10° NE
Cosmos 1125 Rocket 3.9 23:46:36 10° NNW 23:50:48 55° NW 23:50:48 55° NW
MSX 3.7 23:46:06 10° NNE 23:51:54 83° WNW 23:52:04 82° WSW
Cosmos 2082 3.7 23:53:05 66° WNW 23:53:05 66° WNW 23:58:34 10° NNE
